User: anonymous   Login
Location: Theodore Roosevelt National Park
(46.9990°N, 103.4631°W)
Time: 15:13:37
(UTC-07:00)
Language:

Cosmos 2219 Rocket - Orbit

View from above orbital plane
View from above orbital plane
View from above satellite
View from above satellite

Ground track
Ground track

The orbit data is extracted from the following two-line orbital elements,

1 22220U 92076B   16337.50199692  .00000208  00000-0  12869-3 0  9992
2 22220  70.9993 113.2581 0014237 220.3433 201.6469 14.16407773242929
Epoch (UTC): 02 December 2016 12:02:52
Eccentricity: 0.0014237
inclination: 70.9993°
perigee height: 827 km
apogee height: 848 km
right ascension of ascending node: 113.2581°
argument of perigee: 220.3433°
revolutions per day: 14.16407773
mean anomaly at epoch: 201.6469°
orbit number at epoch: 24292

The dashed part of the orbit path shows where the satellite is in the earth's shadow,  

DLR